STARLINK-35871

Last updated on Wed Dec 31 2025 00:02:06 GMT+0000 (Coordinated Universal Time)

1 66566U 25268K 25364.58335648 .00073024 00000+0 26431-2 0 9997 2 66566 43.0004 17.1000 0001711 265.1843 93.5796 15.27504437 5978
UTC large
Height (km)
Speed (km/s)
/
Latitude / Longitude
Inclination (degrees)
Orbital Period (minutes)
Azimuth
Elevation
Range (km)
Doppler Factor

Next 0 passes for location: London (51.5072 / 0.1276)

Sorry there are no passes over London.